sat.trackr.live / text

‹ back to catalog

ICEYE-X4

NORAD 44390 · 2019-038D

PAYLOAD ACTIVE UNKNOWN

§ Identity

Operator
Country
FIN
Launch date
2019-07-05
Launch site
VOSTO
Launch vehicle
Mass (kg)
RCS (m²)

External: N2YO · Heavens-Above · Gunter

§ Orbital elements

Epoch: 2026-09-20T05:02:30.840288Z

Period
94.05 min
Inclination
97.8692°
Eccentricity
0.0011705
Mean motion
15.31142661 rev/d
Perigee alt
464.4 km
Apogee alt
480.4 km
Semi-major
6,850.5 km
B*
2.5937e-4
RAAN
301.8113°
Arg perigee
337.2965°
Mean anomaly
22.7756°
Rev number
39,633

§ Raw data

ICEYE-X41 44390U 19038D   26263.21007917  .00007733  00000+0  25937-3 0  99952 44390  97.8692 301.8113 0011705 337.2965  22.7756 15.31142661396332

JSON: /api/v1/satellites/44390 · /tle

For live sub-satellite position, see the globe view (requires WebGL).

§ Visibility from observer

Set your observer location to see the next 7 days of passes ≥ 10°. The values pass through the URL so the page stays shareable.

No JS? Fill the form by hand. The geolocation button needs JavaScript.

§ Radio — SatNOGS DB

ModeDescriptionDownlinkUplink
BPSK S-band telemetry 2.264 GHz

1 transmitter · refreshed weekly from db.satnogs.org